This demonstration page uses our WeatherBlox Daily Observations layout. Learn more.

Left ArrowRight Arrow

Hourly Observations for July 13, 2018

Temp ( °F °C ) Dew Point ( °F °C ) Humidity (%) Winds ( mph kmh ) Pressure ( in mb ) Visibility ( mi km ) Precip ( " mm )
12:15 am 00:15 Clear 75 24 68 20 78 78 SE 5 7 30.24 1024 10 16 0.00 0.00
12:35 am 00:35 Clear 75 24 68 20 78 78 SSE 8 13 30.21 1023 10 16 0.00 0.00
12:55 am 00:55 Clear 75 24 68 20 78 78 SE 3 6 30.21 1023 10 16 0.00 0.00
1:15 am 01:15 Clear 73 23 68 20 83 83 SE 3 6 30.21 1023 10 16 0.00 0.00
1:35 am 01:35 Clear 73 23 68 20 83 83 SSE 5 7 30.21 1023 10 16 0.00 0.00
1:55 am 01:55 Clear 72 22 68 20 88 88 S 3 6 30.21 1023 10 16 0.00 0.00
2:15 am 02:15 Clear 70 21 68 20 94 94 Calm 30.21 1023 10 16 0.00 0.00
2:35 am 02:35 Partly Cloudy 68 20 66 19 94 94 Calm 30.24 1024 10 16 0.00 0.00
2:55 am 02:55 Cloudy 68 20 66 19 94 94 Calm 30.21 1023 10 16 0.00 0.00
3:15 am 03:15 Cloudy 68 20 66 19 94 94 Calm 30.24 1024 10 16 0.00 0.00
3:35 am 03:35 Cloudy 70 21 68 20 94 94 Calm 30.21 1023 10 16 0.00 0.00
3:55 am 03:55 Cloudy 68 20 68 20 100 100 Calm 30.24 1024 10 16 0.00 0.00
4:15 am 04:15 Partly Cloudy 66 19 66 19 100 100 Calm 30.24 1024 10 16 0.00 0.00
4:35 am 04:35 Clear 68 20 66 19 94 94 Calm 30.24 1024 10 16 0.00 0.00
4:55 am 04:55 Partly Cloudy 68 20 66 19 94 94 Calm 30.24 1024 10 16 0.00 0.00
5:15 am 05:15 Clear 64 18 64 18 100 100 Calm 30.24 1024 10 16 0.00 0.00
5:35 am 05:35 Clear 64 18 64 18 100 100 Calm 30.24 1024 10 16 0.00 0.00
5:55 am 05:55 Clear 64 18 64 18 100 100 N 3 6 30.24 1024 10 16 0.00 0.00
6:15 am 06:15 Sunny 64 18 64 18 100 100 N 3 6 30.24 1024 10 16 0.00 0.00
6:35 am 06:35 Sunny 64 18 64 18 100 100 Calm 30.24 1024 10 16 0.00 0.00
6:55 am 06:55 Sunny 66 19 64 18 94 94 Calm 30.24 1024 10 16 0.00 0.00
7:15 am 07:15 Sunny 66 19 64 18 94 94 Calm 30.24 1024 10 16 0.00 0.00
7:35 am 07:35 Sunny 68 20 64 18 88 88 Calm 30.24 1024 10 16 0.00 0.00
8:03 am 08:03 Sunny 70 21 66 19 88 88 NE 3 6 30.27 1025 10 16 0.00 0.00
8:15 am 08:15 Sunny 70 21 66 19 88 88 Calm 30.27 1025 10 16 0.00 0.00
8:35 am 08:35 Sunny 72 22 68 20 88 88 Calm 30.27 1025 10 16 0.00 0.00
8:55 am 08:55 Sunny 72 22 68 20 88 88 Calm 30.27 1025 10 16 0.00 0.00
9:15 am 09:15 Sunny 73 23 68 20 83 83 E 5 7 30.24 1024 10 16 0.00 0.00
9:35 am 09:35 Sunny 77 25 64 18 65 65 E 6 9 30.24 1024 10 16 0.00 0.00
9:55 am 09:55 Sunny 77 25 64 18 65 65 NE 3 6 30.24 1024 10 16 0.00 0.00
10:15 am 10:15 Sunny 79 26 63 17 58 58 Calm 30.27 1025 10 16 0.00 0.00
10:35 am 10:35 Sunny 79 26 64 18 61 61 Calm 30.27 1025 10 16 0.00 0.00
10:55 am 10:55 Sunny 81 27 64 18 58 58 ESE 5 7 30.27 1025 10 16 0.00 0.00
11:15 am 11:15 Sunny 82 28 59 15 45 45 SE 5 7 30.27 1025 10 16 0.00 0.00
11:35 am 11:35 Sunny 82 28 61 16 48 48 SSE 3 6 30.27 1025 10 16 0.00 0.00
11:55 am 11:55 Sunny 84 29 61 16 45 45 SSE 9 15 30.24 1024 10 16 0.00 0.00
12:15 pm 12:15 Sunny 84 29 59 15 43 43 SSE 8 13 30.24 1024 10 16 0.00 0.00
12:35 pm 12:35 Sunny 86 30 59 15 40 40 S 3 6 30.24 1024 10 16 0.00 0.00
12:55 pm 12:55 Sunny 86 30 59 15 40 40 SE 9 15 30.24 1024 10 16 0.00 0.00
1:15 pm 13:15 Sunny 86 30 57 14 38 38 SE 8 13 30.24 1024 10 16 0.00 0.00
1:35 pm 13:35 Partly Cloudy 88 31 57 14 35 35 SSE 3 6 30.24 1024 10 16 0.00 0.00
1:55 pm 13:55 Partly Cloudy 88 31 59 15 38 38 SE 8 13 30.24 1024 10 16 0.00 0.00
2:15 pm 14:15 Mostly Cloudy 88 31 59 15 38 38 SSE 6 9 30.24 1024 10 16 0.00 0.00
2:35 pm 14:35 Mostly Cloudy 88 31 59 15 38 38 SSW 12 19 30.24 1024 10 16 0.00 0.00
2:55 pm 14:55 Partly Cloudy 88 31 59 15 38 38 SE 8 13 30.21 1023 10 16 0.00 0.00
3:15 pm 15:15 Partly Cloudy 88 31 61 16 40 40 SSW 9 15 30.21 1023 10 16 0.00 0.00
3:35 pm 15:35 Mostly Cloudy 90 32 61 16 38 38 S 7 11 30.21 1023 10 16 0.00 0.00
3:55 pm 15:55 Mostly Cloudy 88 31 61 16 40 40 S 7 11 30.21 1023 10 16 0.00 0.00
4:15 pm 16:15 Partly Cloudy 88 31 61 16 40 40 SSE 10 17 30.21 1023 10 16 0.00 0.00
4:35 pm 16:35 Mostly Cloudy 86 30 61 16 43 43 SSW 7 11 30.21 1023 10 16 0.00 0.00
4:55 pm 16:55 Partly Cloudy 88 31 61 16 40 40 SSW 7 11 30.21 1023 10 16 0.00 0.00
5:15 pm 17:15 Partly Cloudy 88 31 61 16 40 40 SW 8 13 30.21 1023 10 16 0.00 0.00
5:35 pm 17:35 Mostly Cloudy 88 31 61 16 40 40 S 8 13 30.21 1023 10 16 0.00 0.00
5:55 pm 17:55 Partly Cloudy 88 31 61 16 40 40 SW 6 9 30.18 1022 10 16 0.00 0.00
6:15 pm 18:15 Sunny 86 30 63 17 46 46 SSW 6 9 30.18 1022 10 16 0.00 0.00
6:35 pm 18:35 Sunny 86 30 64 18 49 49 S 8 13 30.18 1022 10 16 0.00 0.00
6:55 pm 18:55 Sunny 84 29 64 18 51 51 SSW 5 7 30.18 1022 10 16 0.00 0.00
7:15 pm 19:15 Sunny 86 30 64 18 49 49 SSW 5 7 30.18 1022 10 16 0.00 0.00
7:35 pm 19:35 Sunny 82 28 64 18 55 55 SSW 7 11 30.18 1022 10 16 0.00 0.00
7:55 pm 19:55 Sunny 82 28 64 18 55 55 S 6 9 30.18 1022 10 16 0.00 0.00
8:15 pm 20:15 Sunny 81 27 63 17 54 54 SE 7 11 30.18 1022 10 16 0.00 0.00
8:35 pm 20:35 Sunny 81 27 63 17 54 54 S 6 9 30.18 1022 10 16 0.00 0.00
8:55 pm 20:55 Clear 79 26 63 17 58 58 S 6 9 30.18 1022 10 16 0.00 0.00
9:15 pm 21:15 Clear 79 26 63 17 58 58 S 6 9 30.18 1022 10 16 0.00 0.00
9:35 pm 21:35 Clear 77 25 63 17 61 61 SSW 5 7 30.21 1023 10 16 0.00 0.00
9:55 pm 21:55 Clear 75 24 61 16 61 61 SSW 3 6 30.21 1023 10 16 0.00 0.00
10:15 pm 22:15 Clear 75 24 61 16 61 61 SSW 5 7 30.21 1023 10 16 0.00 0.00
10:35 pm 22:35 Clear 73 23 61 16 65 65 S 5 7 30.21 1023 10 16 0.00 0.00
10:55 pm 22:55 Clear 73 23 61 16 65 65 S 6 9 30.21 1023 10 16 0.00 0.00
11:15 pm 23:15 Partly Cloudy 73 23 63 17 69 69 S 7 11 30.21 1023 10 16 0.00 0.00
11:35 pm 23:35 Partly Cloudy 73 23 63 17 69 69 S 7 11 30.21 1023 10 16 0.00 0.00
11:55 pm 23:55 Clear 72 22 63 17 73 73 WSW 5 7 30.21 1023 10 16 0.00 0.00

Powered by AerisWeather